This is the latest recevied weather packets stored in our database for station/object IU7LMH-13. If no packets are shown the sender has not sent any weather packets the latest 10 day(s).
| Time | Temp. | Humidity | Pressure | Rain* | Wind** | Luminosity | Snow |
|---|---|---|---|---|---|---|---|
| 1777857457 | 11.11° C | 78% | 1018 hPa | 0 mm | - | - | - |
| 1777855657 | 12.22° C | 76% | 1018 hPa | 0 mm | - | - | - |
| 1777855179 | 12.78° C | 73% | 1017.9 hPa | 0 mm | - | - | - |
| 1777854577 | 12.78° C | 73% | 1017.9 hPa | 0 mm | - | - | - |
| 1777854458 | 13.33° C | 73% | 1018 hPa | 0 mm | - | - | - |
| 1777854217 | 13.33° C | 73% | 1017.9 hPa | 0 mm | - | - | - |
| 1777853858 | 12.78° C | 73% | 1018 hPa | 0 mm | - | - | - |
| 1777853744 | 12.78° C | 73% | 1018 hPa | 0 mm | - | - | - |
| 1777853616 | 12.78° C | 73% | 1018.1 hPa | 0 mm | - | - | - |
| 1777853257 | 13.33° C | 72% | 1018.1 hPa | 0 mm | - | - | - |
| 1777851096 | 13.33° C | 72% | 1018.1 hPa | 0 mm | - | - | - |
| 1777850497 | 13.33° C | 71% | 1017.9 hPa | 0 mm | - | - | - |
| 1777849418 | 13.89° C | 70% | 1018 hPa | 0 mm | - | - | - |
| 1777849296 | 13.89° C | 69% | 1018 hPa | 0 mm | - | - | - |
| 1777848944 | 14.44° C | 68% | 1018.1 hPa | 0 mm | - | - | - |
| 1777848815 | 14.44° C | 68% | 1018 hPa | 0 mm | - | - | - |
| 1777847977 | 14.44° C | 67% | 1018.3 hPa | 0 mm | - | - | - |
| 1777846896 | 14.44° C | 68% | 1018.1 hPa | 0 mm | - | - | - |
| 1777843777 | 15.56° C | 63% | 1018 hPa | 0 mm | - | - | - |
| 1777843543 | 16.11° C | 62% | 1018 hPa | 0 mm | - | - | - |
| 1777842458 | 16.11° C | 61% | 1017.8 hPa | 0 mm | - | - | - |
| 1777842098 | 16.11° C | 62% | 1017.9 hPa | 0 mm | - | - | - |
| 1777841978 | 16.11° C | 62% | 1017.8 hPa | 0 mm | - | - | - |
| 1777841856 | 16.11° C | 62% | 1017.8 hPa | 0 mm | - | - | - |
| 1777841743 | 16.11° C | 62% | 1017.8 hPa | 0 mm | - | - | - |
* Rain latest hour (hover to see other rain measurements)
** Current wind speed in m/s (hover to see current wind gust speed)